Location: Stockholm
(59.3330°N, 18.0500°E)
Time: 12:59:33
(UTC+01:00)

Envisat - Pass Details

Date: 30 November 2022
Orbit: 763 x 765 km, 98.2° (Epoch: 29 January)

Event Time Altitude Azimuth Distance (km) Brightness Sun altitude
Rises 16:53:57 0° 226° (SW) 3,229 7.6 -13.3°
Reaches altitude 10° 16:57:43 10° 255° (WSW) 2,309 6.9 -13.8°
Maximum altitude 16:59:53 13° 281° (W) 2,131 6.2 -14.0°
Drops below altitude 10° 17:02:05 10° 306° (NW) 2,316 6.0 -14.3°
Sets 17:05:53 0° 335° (NNW) 3,249 6.3 -14.8°
